Date Time,iGrav29_week_Neck-T2
2024/04/13 00:00:00, 281.271330
2024/04/13 00:01:00, 281.224814
2024/04/13 00:02:00, 281.235904
2024/04/13 00:03:00, 281.229530
2024/04/13 00:04:00, 281.234118
2024/04/13 00:05:00, 281.230485
2024/04/13 00:06:00, 281.233437
2024/04/13 00:07:00, 281.231050
2024/04/13 00:08:00, 281.233022
2024/04/13 00:09:00, 281.231044
2024/04/13 00:10:00, 281.232848
2024/04/13 00:11:00, 281.231263
2024/04/13 00:12:00, 281.232665
2024/04/13 00:13:00, 281.231544
2024/04/13 00:14:00, 281.232733
2024/04/13 00:15:00, 281.231532
2024/04/13 00:16:00, 281.232604
2024/04/13 00:17:00, 281.231494
2024/04/13 00:18:00, 281.232465
2024/04/13 00:19:00, 281.231485
2024/04/13 00:20:00, 281.232704
2024/04/13 00:21:00, 281.231529
2024/04/13 00:22:00, 281.232409
2024/04/13 00:23:00, 281.231554
2024/04/13 00:24:00, 281.232554
2024/04/13 00:25:00, 281.231666
2024/04/13 00:26:00, 281.232135
2024/04/13 00:27:00, 281.231709
2024/04/13 00:28:00, 281.232339
2024/04/13 00:29:00, 281.231633
2024/04/13 00:30:00, 281.232373
2024/04/13 00:31:00, 281.231993
2024/04/13 00:32:00, 281.232221
2024/04/13 00:33:00, 281.231801
2024/04/13 00:34:00, 281.232201
2024/04/13 00:35:00, 281.231926
2024/04/13 00:36:00, 281.232377
2024/04/13 00:37:00, 281.231960
2024/04/13 00:38:00, 281.232311
2024/04/13 00:39:00, 281.231979
2024/04/13 00:40:00, 281.232418
2024/04/13 00:41:00, 281.231995
2024/04/13 00:42:00, 281.232158
2024/04/13 00:43:00, 281.231935
2024/04/13 00:44:00, 281.232358
2024/04/13 00:45:00, 281.232238
2024/04/13 00:46:00, 281.232435
2024/04/13 00:47:00, 281.232104
2024/04/13 00:48:00, 281.232310
2024/04/13 00:49:00, 281.232065
2024/04/13 00:50:00, 281.232333
2024/04/13 00:51:00, 281.232313
2024/04/13 00:52:00, 281.232485
2024/04/13 00:53:00, 281.231968
2024/04/13 00:54:00, 281.232577
2024/04/13 00:55:00, 281.232189
2024/04/13 00:56:00, 281.232390
2024/04/13 00:57:00, 281.231995
2024/04/13 00:58:00, 281.232382
2024/04/13 00:59:00, 281.232328
2024/04/13 01:00:00, 281.232528
2024/04/13 01:01:00, 281.232123
2024/04/13 01:02:00, 281.232427
2024/04/13 01:03:00, 281.232061
2024/04/13 01:04:00, 281.232302
2024/04/13 01:05:00, 281.232199
2024/04/13 01:06:00, 281.232385
2024/04/13 01:07:00, 281.231985
2024/04/13 01:08:00, 281.232030
2024/04/13 01:09:00, 281.231904
2024/04/13 01:10:00, 281.232204
2024/04/13 01:11:00, 281.232011
2024/04/13 01:12:00, 281.232264
2024/04/13 01:13:00, 281.231907
2024/04/13 01:14:00, 281.232253
2024/04/13 01:15:00, 281.231990
2024/04/13 01:16:00, 281.232105
2024/04/13 01:17:00, 281.232099
2024/04/13 01:18:00, 281.232247
2024/04/13 01:19:00, 281.231977
2024/04/13 01:20:00, 281.232229
2024/04/13 01:21:00, 281.232144
2024/04/13 01:22:00, 281.232414
2024/04/13 01:23:00, 281.232103
2024/04/13 01:24:00, 281.232209
2024/04/13 01:25:00, 281.232040
2024/04/13 01:26:00, 281.232232
2024/04/13 01:27:00, 281.232007
2024/04/13 01:28:00, 281.232339
2024/04/13 01:29:00, 281.232083
2024/04/13 01:30:00, 281.232258
2024/04/13 01:31:00, 281.231988
2024/04/13 01:32:00, 281.232008
2024/04/13 01:33:00, 281.231966
2024/04/13 01:34:00, 281.232196
2024/04/13 01:35:00, 281.231932
2024/04/13 01:36:00, 281.232007
2024/04/13 01:37:00, 281.231872
2024/04/13 01:38:00, 281.231782
2024/04/13 01:39:00, 281.231682
2024/04/13 01:40:00, 281.232041
2024/04/13 01:41:00, 281.231700
2024/04/13 01:42:00, 281.231971
2024/04/13 01:43:00, 281.231762
2024/04/13 01:44:00, 281.231909
2024/04/13 01:45:00, 281.231741
2024/04/13 01:46:00, 281.231587
2024/04/13 01:47:00, 281.231443
2024/04/13 01:48:00, 281.231741
2024/04/13 01:49:00, 281.231548
2024/04/13 01:50:00, 281.231648
2024/04/13 01:51:00, 281.231447
2024/04/13 01:52:00, 281.231518
2024/04/13 01:53:00, 281.231503
2024/04/13 01:54:00, 281.231732
2024/04/13 01:55:00, 281.231507
2024/04/13 01:56:00, 281.231540
2024/04/13 01:57:00, 281.231603
2024/04/13 01:58:00, 281.231688
2024/04/13 01:59:00, 281.231373
2024/04/13 02:00:00, 281.231476
2024/04/13 02:01:00, 281.231462
2024/04/13 02:02:00, 281.231468
2024/04/13 02:03:00, 281.231387
2024/04/13 02:04:00, 281.231538
2024/04/13 02:05:00, 281.231270
2024/04/13 02:06:00, 281.231455
2024/04/13 02:07:00, 281.231479
2024/04/13 02:08:00, 281.231309
2024/04/13 02:09:00, 281.231380
2024/04/13 02:10:00, 281.231533
2024/04/13 02:11:00, 281.231335
2024/04/13 02:12:00, 281.231265
2024/04/13 02:13:00, 281.231476
2024/04/13 02:14:00, 281.231646
2024/04/13 02:15:00, 281.231742
2024/04/13 02:16:00, 281.231882
2024/04/13 02:17:00, 281.231543
2024/04/13 02:18:00, 281.231601
2024/04/13 02:19:00, 281.231513
2024/04/13 02:20:00, 281.231384
2024/04/13 02:21:00, 281.231378
2024/04/13 02:22:00, 281.231425
2024/04/13 02:23:00, 281.231350
2024/04/13 02:24:00, 281.231293
2024/04/13 02:25:00, 281.231217
2024/04/13 02:26:00, 281.231454
2024/04/13 02:27:00, 281.231296
2024/04/13 02:28:00, 281.231514
2024/04/13 02:29:00, 281.231216
2024/04/13 02:30:00, 281.231538
2024/04/13 02:31:00, 281.231413
2024/04/13 02:32:00, 281.231278
2024/04/13 02:33:00, 281.231336
2024/04/13 02:34:00, 281.231324
2024/04/13 02:35:00, 281.231132
2024/04/13 02:36:00, 281.231452
2024/04/13 02:37:00, 281.231219
2024/04/13 02:38:00, 281.231443
2024/04/13 02:39:00, 281.231202
2024/04/13 02:40:00, 281.231231
2024/04/13 02:41:00, 281.231156
2024/04/13 02:42:00, 281.231253
2024/04/13 02:43:00, 281.231162
2024/04/13 02:44:00, 281.231215
2024/04/13 02:45:00, 281.230977
2024/04/13 02:46:00, 281.231101
2024/04/13 02:47:00, 281.230949
2024/04/13 02:48:00, 281.231079
2024/04/13 02:49:00, 281.230835
2024/04/13 02:50:00, 281.231060
2024/04/13 02:51:00, 281.230783
2024/04/13 02:52:00, 281.231070
2024/04/13 02:53:00, 281.230968
2024/04/13 02:54:00, 281.230967
2024/04/13 02:55:00, 281.230780
2024/04/13 02:56:00, 281.230895
2024/04/13 02:57:00, 281.230594
2024/04/13 02:58:00, 281.231123
2024/04/13 02:59:01, 281.231035
2024/04/13 03:00:01, 281.230945
2024/04/13 03:01:01, 281.230851
2024/04/13 03:02:01, 281.230988
2024/04/13 03:03:01, 281.230967
2024/04/13 03:04:01, 281.231012
2024/04/13 03:05:01, 281.231079
2024/04/13 03:06:01, 281.231093
2024/04/13 03:07:01, 281.230918
2024/04/13 03:08:01, 281.231136
2024/04/13 03:09:01, 281.231120
2024/04/13 03:10:01, 281.231172
2024/04/13 03:11:01, 281.230995
2024/04/13 03:12:01, 281.231152
2024/04/13 03:13:01, 281.230859
2024/04/13 03:14:01, 281.231040
2024/04/13 03:15:01, 281.230875
2024/04/13 03:16:01, 281.231028
2024/04/13 03:17:01, 281.231198
2024/04/13 03:18:01, 281.231264
2024/04/13 03:19:01, 281.231121
2024/04/13 03:20:01, 281.231433
2024/04/13 03:21:01, 281.230955
2024/04/13 03:22:01, 281.231004
2024/04/13 03:23:01, 281.231008
2024/04/13 03:24:01, 281.231155
2024/04/13 03:25:01, 281.231029
2024/04/13 03:26:01, 281.231046
2024/04/13 03:27:01, 281.230984
2024/04/13 03:28:01, 281.230970
2024/04/13 03:29:01, 281.230947
2024/04/13 03:30:01, 281.230933
2024/04/13 03:31:01, 281.230891
2024/04/13 03:32:01, 281.231217
2024/04/13 03:33:01, 281.231202
2024/04/13 03:34:01, 281.231254
2024/04/13 03:35:01, 281.231041
2024/04/13 03:36:01, 281.230997
2024/04/13 03:37:01, 281.230945
2024/04/13 03:38:01, 281.230961
2024/04/13 03:39:01, 281.230911
2024/04/13 03:40:01, 281.230961
2024/04/13 03:41:01, 281.230857
2024/04/13 03:42:01, 281.231198
2024/04/13 03:43:01, 281.230806
2024/04/13 03:44:01, 281.231019
2024/04/13 03:45:01, 281.230832
2024/04/13 03:46:01, 281.231006
2024/04/13 03:47:01, 281.230793
2024/04/13 03:48:01, 281.230740
2024/04/13 03:49:01, 281.230858
2024/04/13 03:50:01, 281.231056
2024/04/13 03:51:01, 281.230649
2024/04/13 03:52:01, 281.230569
2024/04/13 03:53:01, 281.230399
2024/04/13 03:54:01, 281.230492
2024/04/13 03:55:01, 281.230462
2024/04/13 03:56:01, 281.230550
2024/04/13 03:57:01, 281.230501
2024/04/13 03:58:01, 281.230446
2024/04/13 03:59:01, 281.230244
2024/04/13 04:00:01, 281.230364
2024/04/13 04:01:01, 281.230275
2024/04/13 04:02:01, 281.230247
2024/04/13 04:03:01, 281.230422
2024/04/13 04:04:01, 281.230340
2024/04/13 04:05:01, 281.230329
2024/04/13 04:06:01, 281.230228
2024/04/13 04:07:01, 281.230289
2024/04/13 04:08:01, 281.230203
2024/04/13 04:09:01, 281.230091
2024/04/13 04:10:01, 281.230176
2024/04/13 04:11:01, 281.230163
2024/04/13 04:12:01, 281.230281
2024/04/13 04:13:01, 281.230075
2024/04/13 04:14:01, 281.230113
2024/04/13 04:15:01, 281.229967
2024/04/13 04:16:01, 281.230266
2024/04/13 04:17:01, 281.229999
2024/04/13 04:18:01, 281.229899
2024/04/13 04:19:01, 281.230018
2024/04/13 04:20:01, 281.230199
2024/04/13 04:21:01, 281.230009
2024/04/13 04:22:01, 281.230191
2024/04/13 04:23:01, 281.230182
2024/04/13 04:24:01, 281.230408
2024/04/13 04:25:01, 281.230350
2024/04/13 04:26:01, 281.230133
2024/04/13 04:27:01, 281.230158
2024/04/13 04:28:01, 281.230183
2024/04/13 04:29:01, 281.230080
2024/04/13 04:30:01, 281.230107
2024/04/13 04:31:01, 281.230051
2024/04/13 04:32:01, 281.230189
2024/04/13 04:33:01, 281.230057
2024/04/13 04:34:01, 281.230208
2024/04/13 04:35:01, 281.230225
2024/04/13 04:36:01, 281.230089
2024/04/13 04:37:01, 281.230095
2024/04/13 04:38:01, 281.230082
2024/04/13 04:39:01, 281.229963
2024/04/13 04:40:01, 281.229761
2024/04/13 04:41:01, 281.229794
2024/04/13 04:42:01, 281.230067
2024/04/13 04:43:01, 281.229979
2024/04/13 04:44:01, 281.230056
2024/04/13 04:45:01, 281.230012
2024/04/13 04:46:01, 281.229984
2024/04/13 04:47:01, 281.229977
2024/04/13 04:48:01, 281.230163
2024/04/13 04:49:01, 281.230033
2024/04/13 04:50:01, 281.230073
2024/04/13 04:51:01, 281.229790
2024/04/13 04:52:01, 281.230037
2024/04/13 04:53:01, 281.229922
2024/04/13 04:54:01, 281.229964
2024/04/13 04:55:01, 281.229887
2024/04/13 04:56:01, 281.229983
2024/04/13 04:57:01, 281.230002
2024/04/13 04:58:01, 281.230052
2024/04/13 04:59:01, 281.230056
2024/04/13 05:00:01, 281.230042
2024/04/13 05:01:01, 281.229744
2024/04/13 05:02:01, 281.229942
2024/04/13 05:03:01, 281.230033
2024/04/13 05:04:01, 281.229742
2024/04/13 05:05:01, 281.229789
2024/04/13 05:06:01, 281.229856
2024/04/13 05:07:01, 281.229930
2024/04/13 05:08:01, 281.229845
2024/04/13 05:09:01, 281.229817
2024/04/13 05:10:01, 281.229735
2024/04/13 05:11:01, 281.229646
2024/04/13 05:12:01, 281.229924
2024/04/13 05:13:01, 281.229945
2024/04/13 05:14:01, 281.229868
2024/04/13 05:15:01, 281.229629
2024/04/13 05:16:01, 281.229535
2024/04/13 05:17:01, 281.229529
2024/04/13 05:18:01, 281.229707
2024/04/13 05:19:01, 281.229492
2024/04/13 05:20:01, 281.229587
2024/04/13 05:21:01, 281.229664
2024/04/13 05:22:01, 281.229671
2024/04/13 05:23:01, 281.229581
2024/04/13 05:24:01, 281.229818
2024/04/13 05:25:01, 281.229692
2024/04/13 05:26:01, 281.229514
2024/04/13 05:27:01, 281.229594
2024/04/13 05:28:01, 281.229650
2024/04/13 05:29:01, 281.229487
2024/04/13 05:30:01, 281.229392
2024/04/13 05:31:01, 281.229392
2024/04/13 05:32:01, 281.229583
2024/04/13 05:33:01, 281.229479
2024/04/13 05:34:01, 281.229532
2024/04/13 05:35:01, 281.229601
2024/04/13 05:36:01, 281.229558
2024/04/13 05:37:01, 281.229352
2024/04/13 05:38:01, 281.229625
2024/04/13 05:39:01, 281.229618
2024/04/13 05:40:01, 281.229539
2024/04/13 05:41:01, 281.229430
2024/04/13 05:42:01, 281.229541
2024/04/13 05:43:01, 281.229504
2024/04/13 05:44:01, 281.229329
2024/04/13 05:45:01, 281.229593
2024/04/13 05:46:01, 281.229661
2024/04/13 05:47:01, 281.229342
2024/04/13 05:48:01, 281.229609
2024/04/13 05:49:01, 281.229431
2024/04/13 05:50:01, 281.229417
2024/04/13 05:51:01, 281.229357
2024/04/13 05:52:01, 281.229392
2024/04/13 05:53:01, 281.229429
2024/04/13 05:54:01, 281.229548
2024/04/13 05:55:01, 281.229344
2024/04/13 05:56:01, 281.229461
2024/04/13 05:57:01, 281.229382
2024/04/13 05:58:02, 281.229410
2024/04/13 05:59:02, 281.229466
2024/04/13 06:00:02, 281.229675
2024/04/13 06:01:02, 281.229456
2024/04/13 06:02:02, 281.229503
2024/04/13 06:03:02, 281.229798
2024/04/13 06:04:02, 281.229808
2024/04/13 06:05:02, 281.229661
2024/04/13 06:06:02, 281.229534
2024/04/13 06:07:02, 281.229629
2024/04/13 06:08:02, 281.229492
2024/04/13 06:09:02, 281.229602
2024/04/13 06:10:02, 281.229611
2024/04/13 06:11:02, 281.229435
2024/04/13 06:12:02, 281.229584
2024/04/13 06:13:02, 281.229613
2024/04/13 06:14:02, 281.229508
2024/04/13 06:15:02, 281.229644
2024/04/13 06:16:02, 281.229666
2024/04/13 06:17:02, 281.229671
2024/04/13 06:18:02, 281.229794
2024/04/13 06:19:02, 281.229532
2024/04/13 06:20:02, 281.229763
2024/04/13 06:21:02, 281.229704
2024/04/13 06:22:02, 281.229811
2024/04/13 06:23:02, 281.229642
2024/04/13 06:24:02, 281.229585
2024/04/13 06:25:02, 281.229756
2024/04/13 06:26:02, 281.229596
2024/04/13 06:27:02, 281.229462
2024/04/13 06:28:02, 281.229506
2024/04/13 06:29:02, 281.229509
2024/04/13 06:30:02, 281.229646
2024/04/13 06:31:02, 281.229669
2024/04/13 06:32:02, 281.229654
2024/04/13 06:33:02, 281.229669
2024/04/13 06:34:02, 281.229638
2024/04/13 06:35:02, 281.229402
2024/04/13 06:36:02, 281.229547
2024/04/13 06:37:02, 281.229551
2024/04/13 06:38:02, 281.229635
2024/04/13 06:39:02, 281.229509
2024/04/13 06:40:02, 281.229622
2024/04/13 06:41:02, 281.229504
2024/04/13 06:42:02, 281.229593
2024/04/13 06:43:02, 281.229264
2024/04/13 06:44:02, 281.229307
2024/04/13 06:45:02, 281.229437
2024/04/13 06:46:02, 281.229600
2024/04/13 06:47:02, 281.229519
2024/04/13 06:48:02, 281.229521
2024/04/13 06:49:02, 281.229504
2024/04/13 06:50:02, 281.229343
2024/04/13 06:51:02, 281.229391
2024/04/13 06:52:02, 281.229527
2024/04/13 06:53:02, 281.229517
2024/04/13 06:54:02, 281.229504
2024/04/13 06:55:02, 281.229373
2024/04/13 06:56:02, 281.229545
2024/04/13 06:57:02, 281.229556
2024/04/13 06:58:02, 281.229822
2024/04/13 06:59:02, 281.229604
2024/04/13 07:00:02, 281.229607
2024/04/13 07:01:02, 281.229591
2024/04/13 07:02:02, 281.229597
2024/04/13 07:03:02, 281.229674
2024/04/13 07:04:02, 281.229707
2024/04/13 07:05:02, 281.229566
2024/04/13 07:06:02, 281.229635
2024/04/13 07:07:02, 281.229631
2024/04/13 07:08:02, 281.229787
2024/04/13 07:09:02, 281.229701
2024/04/13 07:10:02, 281.229550
2024/04/13 07:11:02, 281.229570
2024/04/13 07:12:02, 281.229724
2024/04/13 07:13:02, 281.229692
2024/04/13 07:14:02, 281.229660
2024/04/13 07:15:02, 281.229544
2024/04/13 07:16:02, 281.229586
2024/04/13 07:17:02, 281.229694
2024/04/13 07:18:02, 281.229741
2024/04/13 07:19:02, 281.229461
2024/04/13 07:20:02, 281.229531
2024/04/13 07:21:02, 281.229666
2024/04/13 07:22:02, 281.229486
2024/04/13 07:23:02, 281.229482
2024/04/13 07:24:02, 281.229623
2024/04/13 07:25:02, 281.229617
2024/04/13 07:26:02, 281.229977
2024/04/13 07:27:02, 281.229989
2024/04/13 07:28:02, 281.229956
2024/04/13 07:29:02, 281.229909
2024/04/13 07:30:02, 281.229921
2024/04/13 07:31:02, 281.229936
2024/04/13 07:32:02, 281.230063
2024/04/13 07:33:02, 281.229813
2024/04/13 07:34:02, 281.229777
2024/04/13 07:35:02, 281.229723
2024/04/13 07:36:02, 281.229718
2024/04/13 07:37:02, 281.229615
2024/04/13 07:38:02, 281.229588
2024/04/13 07:39:02, 281.229675
2024/04/13 07:40:02, 281.229733
2024/04/13 07:41:02, 281.229655
2024/04/13 07:42:02, 281.229598
2024/04/13 07:43:02, 281.229549
2024/04/13 07:44:02, 281.229526
2024/04/13 07:45:02, 281.229490
2024/04/13 07:46:02, 281.229717
2024/04/13 07:47:02, 281.229711
2024/04/13 07:48:02, 281.229581
2024/04/13 07:49:02, 281.229725
2024/04/13 07:50:02, 281.229782
2024/04/13 07:51:02, 281.229660
2024/04/13 07:52:02, 281.229669
2024/04/13 07:53:02, 281.229571
2024/04/13 07:54:02, 281.229734
2024/04/13 07:55:02, 281.229964
2024/04/13 07:56:02, 281.229725
2024/04/13 07:57:02, 281.229719
2024/04/13 07:58:02, 281.229980
2024/04/13 07:59:02, 281.229854
2024/04/13 08:00:02, 281.230065
2024/04/13 08:01:02, 281.230027
2024/04/13 08:02:02, 281.230077
2024/04/13 08:03:02, 281.230024
2024/04/13 08:04:02, 281.229858
2024/04/13 08:05:02, 281.230138
2024/04/13 08:06:02, 281.229912
2024/04/13 08:07:02, 281.229977
2024/04/13 08:08:02, 281.229875
2024/04/13 08:09:02, 281.229926
2024/04/13 08:10:02, 281.230104
2024/04/13 08:11:02, 281.229839
2024/04/13 08:12:02, 281.229982
2024/04/13 08:13:02, 281.230228
2024/04/13 08:14:02, 281.230245
2024/04/13 08:15:02, 281.230300
2024/04/13 08:16:02, 281.230238
2024/04/13 08:17:02, 281.230384
2024/04/13 08:18:02, 281.230477
2024/04/13 08:19:02, 281.230579
2024/04/13 08:20:02, 281.230431
2024/04/13 08:21:02, 281.230717
2024/04/13 08:22:02, 281.230586
2024/04/13 08:23:02, 281.230711
2024/04/13 08:24:02, 281.230810
2024/04/13 08:25:02, 281.230743
2024/04/13 08:26:02, 281.230602
2024/04/13 08:27:02, 281.230799
2024/04/13 08:28:02, 281.230617
2024/04/13 08:29:02, 281.230592
2024/04/13 08:30:02, 281.230649
2024/04/13 08:31:02, 281.230842
2024/04/13 08:32:02, 281.230783
2024/04/13 08:33:02, 281.230824
2024/04/13 08:34:02, 281.230727
2024/04/13 08:35:02, 281.230776
2024/04/13 08:36:02, 281.230764
2024/04/13 08:37:02, 281.230808
2024/04/13 08:38:02, 281.230995
2024/04/13 08:39:02, 281.231045
2024/04/13 08:40:02, 281.231031
2024/04/13 08:41:02, 281.230774
2024/04/13 08:42:02, 281.230987
2024/04/13 08:43:02, 281.230938
2024/04/13 08:44:02, 281.230831
2024/04/13 08:45:02, 281.230983
2024/04/13 08:46:02, 281.231139
2024/04/13 08:47:02, 281.231105
2024/04/13 08:48:02, 281.231096
2024/04/13 08:49:02, 281.231041
2024/04/13 08:50:02, 281.231245
2024/04/13 08:51:02, 281.231173
2024/04/13 08:52:02, 281.231060
2024/04/13 08:53:02, 281.231069
2024/04/13 08:54:02, 281.231182
2024/04/13 08:55:02, 281.231336
2024/04/13 08:56:02, 281.231406
2024/04/13 08:57:03, 281.231470
2024/04/13 08:58:03, 281.231765
2024/04/13 08:59:03, 281.231805
2024/04/13 09:00:03, 281.231832
2024/04/13 09:01:03, 281.231648
2024/04/13 09:02:03, 281.231731
2024/04/13 09:03:03, 281.231733
2024/04/13 09:04:03, 281.231554
2024/04/13 09:05:03, 281.231665
2024/04/13 09:06:03, 281.231869
2024/04/13 09:07:03, 281.231724
2024/04/13 09:08:03, 281.231882
2024/04/13 09:09:03, 281.232004
2024/04/13 09:10:03, 281.231804
2024/04/13 09:11:03, 281.231862
2024/04/13 09:12:03, 281.231953
2024/04/13 09:13:03, 281.232093
2024/04/13 09:14:03, 281.232141
2024/04/13 09:15:03, 281.232333
2024/04/13 09:16:03, 281.232316
2024/04/13 09:17:03, 281.232234
2024/04/13 09:18:03, 281.232444
2024/04/13 09:19:03, 281.232637
2024/04/13 09:20:03, 281.232774
2024/04/13 09:21:03, 281.232705
2024/04/13 09:22:03, 281.232702
2024/04/13 09:23:03, 281.232788
2024/04/13 09:24:03, 281.232898
2024/04/13 09:25:03, 281.233030
2024/04/13 09:26:03, 281.233082
2024/04/13 09:27:03, 281.233253
2024/04/13 09:28:03, 281.233243
2024/04/13 09:29:03, 281.233559
2024/04/13 09:30:03, 281.233700
2024/04/13 09:31:03, 281.233543
2024/04/13 09:32:03, 281.233485
2024/04/13 09:33:03, 281.233786
2024/04/13 09:34:03, 281.233599
2024/04/13 09:35:03, 281.233748
2024/04/13 09:36:03, 281.233889
2024/04/13 09:37:03, 281.233785
2024/04/13 09:38:03, 281.233814
2024/04/13 09:39:03, 281.233862
2024/04/13 09:40:03, 281.234097
2024/04/13 09:41:03, 281.234011
2024/04/13 09:42:03, 281.234173
2024/04/13 09:43:03, 281.234277
2024/04/13 09:44:03, 281.234165
2024/04/13 09:45:03, 281.234209
2024/04/13 09:46:03, 281.234491
2024/04/13 09:47:03, 281.234390
2024/04/13 09:48:03, 281.234812
2024/04/13 09:49:03, 281.234744
2024/04/13 09:50:03, 281.234853
2024/04/13 09:51:03, 281.234836
2024/04/13 09:52:03, 281.234893
2024/04/13 09:53:03, 281.234969
2024/04/13 09:54:03, 281.234995
2024/04/13 09:55:03, 281.234856
2024/04/13 09:56:03, 281.235092
2024/04/13 09:57:03, 281.235149
2024/04/13 09:58:03, 281.235281
2024/04/13 09:59:03, 281.235451
2024/04/13 10:00:03, 281.235654
2024/04/13 10:01:03, 281.235634
2024/04/13 10:02:03, 281.235628
2024/04/13 10:03:03, 281.235689
2024/04/13 10:04:03, 281.236046
2024/04/13 10:05:03, 281.236058
2024/04/13 10:06:03, 281.236240
2024/04/13 10:07:03, 281.236371
2024/04/13 10:08:03, 281.236372
2024/04/13 10:09:03, 281.236636
2024/04/13 10:10:03, 281.236592
2024/04/13 10:11:03, 281.236726
2024/04/13 10:12:03, 281.236712
2024/04/13 10:13:03, 281.236888
2024/04/13 10:14:03, 281.237080
2024/04/13 10:15:03, 281.237113
2024/04/13 10:16:03, 281.237240
2024/04/13 10:17:03, 281.237291
2024/04/13 10:18:03, 281.237295
2024/04/13 10:19:03, 281.237537
2024/04/13 10:20:03, 281.237555
2024/04/13 10:21:03, 281.237718
2024/04/13 10:22:03, 281.237761
2024/04/13 10:23:03, 281.237780
2024/04/13 10:24:03, 281.238129
2024/04/13 10:25:03, 281.238135
2024/04/13 10:26:03, 281.238131
2024/04/13 10:27:03, 281.238041
2024/04/13 10:28:03, 281.238251
2024/04/13 10:29:03, 281.238269
2024/04/13 10:30:03, 281.238479
2024/04/13 10:31:03, 281.238385
2024/04/13 10:32:03, 281.238555
2024/04/13 10:33:03, 281.238793
2024/04/13 10:34:03, 281.238812
2024/04/13 10:35:03, 281.238950
2024/04/13 10:36:03, 281.238874
2024/04/13 10:37:03, 281.238991
2024/04/13 10:38:03, 281.239169
2024/04/13 10:39:03, 281.239308
2024/04/13 10:40:03, 281.239507
2024/04/13 10:41:03, 281.239516
2024/04/13 10:42:03, 281.239566
2024/04/13 10:43:03, 281.239735
2024/04/13 10:44:03, 281.239803
2024/04/13 10:45:03, 281.239835
2024/04/13 10:46:03, 281.240040
2024/04/13 10:47:03, 281.239966
2024/04/13 10:48:03, 281.240120
2024/04/13 10:49:03, 281.240222
2024/04/13 10:50:03, 281.240214
2024/04/13 10:51:03, 281.240376
2024/04/13 10:52:03, 281.240342
2024/04/13 10:53:03, 281.240530
2024/04/13 10:54:03, 281.240519
2024/04/13 10:55:03, 281.240562
2024/04/13 10:56:03, 281.240763
2024/04/13 10:57:03, 281.240819
2024/04/13 10:58:03, 281.241029
2024/04/13 10:59:03, 281.241127
2024/04/13 11:00:03, 281.241112
2024/04/13 11:01:03, 281.241311
2024/04/13 11:02:03, 281.241416
2024/04/13 11:03:03, 281.241241
2024/04/13 11:04:03, 281.241560
2024/04/13 11:05:03, 281.241609
2024/04/13 11:06:03, 281.241685
2024/04/13 11:07:03, 281.241782
2024/04/13 11:08:03, 281.242050
2024/04/13 11:09:03, 281.242120
2024/04/13 11:10:03, 281.242370
2024/04/13 11:11:03, 281.242459
2024/04/13 11:12:03, 281.242448
2024/04/13 11:13:03, 281.242389
2024/04/13 11:14:03, 281.242524
2024/04/13 11:15:03, 281.242595
2024/04/13 11:16:03, 281.242771
2024/04/13 11:17:03, 281.242912
2024/04/13 11:18:03, 281.243019
2024/04/13 11:19:03, 281.243123
2024/04/13 11:20:03, 281.243214
2024/04/13 11:21:03, 281.243187
2024/04/13 11:22:03, 281.243549
2024/04/13 11:23:03, 281.243494
2024/04/13 11:24:03, 281.243816
2024/04/13 11:25:03, 281.243821
2024/04/13 11:26:03, 281.243997
2024/04/13 11:27:03, 281.244052
2024/04/13 11:28:03, 281.244118
2024/04/13 11:29:03, 281.244093
2024/04/13 11:30:03, 281.244380
2024/04/13 11:31:03, 281.244315
2024/04/13 11:32:03, 281.244267
2024/04/13 11:33:03, 281.244303
2024/04/13 11:34:03, 281.244394
2024/04/13 11:35:03, 281.244587
2024/04/13 11:36:03, 281.244691
2024/04/13 11:37:03, 281.244746
2024/04/13 11:38:03, 281.244867
2024/04/13 11:39:03, 281.244932
2024/04/13 11:40:03, 281.245137
2024/04/13 11:41:03, 281.245317
2024/04/13 11:42:03, 281.245478
2024/04/13 11:43:03, 281.245284
2024/04/13 11:44:03, 281.245446
2024/04/13 11:45:03, 281.245485
2024/04/13 11:46:03, 281.245802
2024/04/13 11:47:03, 281.245868
2024/04/13 11:48:03, 281.246473
2024/04/13 11:49:03, 281.246491
2024/04/13 11:50:03, 281.246591
2024/04/13 11:51:03, 281.246703
2024/04/13 11:52:03, 281.246771
2024/04/13 11:53:03, 281.246799
2024/04/13 11:54:03, 281.246952
2024/04/13 11:55:03, 281.246991
2024/04/13 11:56:04, 281.247216
2024/04/13 11:57:04, 281.247231
2024/04/13 11:58:04, 281.247529
2024/04/13 11:59:04, 281.247679
2024/04/13 12:00:04, 281.247680
2024/04/13 12:01:04, 281.247780
2024/04/13 12:02:04, 281.247943
2024/04/13 12:03:04, 281.247987
2024/04/13 12:04:04, 281.248086
2024/04/13 12:05:04, 281.248268
2024/04/13 12:06:04, 281.248440
2024/04/13 12:07:04, 281.248610
2024/04/13 12:08:04, 281.248738
2024/04/13 12:09:04, 281.248821
2024/04/13 12:10:04, 281.249150
2024/04/13 12:11:04, 281.249033
2024/04/13 12:12:04, 281.249098
2024/04/13 12:13:04, 281.249276
2024/04/13 12:14:04, 281.249327
2024/04/13 12:15:04, 281.249388
2024/04/13 12:16:04, 281.249840
2024/04/13 12:17:04, 281.249811
2024/04/13 12:18:04, 281.249874
2024/04/13 12:19:04, 281.249845
2024/04/13 12:20:04, 281.249981
2024/04/13 12:21:04, 281.250131
2024/04/13 12:22:04, 281.250323
2024/04/13 12:23:04, 281.250360
2024/04/13 12:24:04, 281.250564
2024/04/13 12:25:04, 281.250375
2024/04/13 12:26:04, 281.250827
2024/04/13 12:27:04, 281.251007
2024/04/13 12:28:04, 281.251131